Year,Month,Day,Hour,Minute,Value (Times are PST for temperature in C)
2016,06,03,00,01,13.10
2016,06,03,00,02,13.00
2016,06,03,00,03,13.00
2016,06,03,00,04,13.00
2016,06,03,00,06,13.00
2016,06,03,00,07,13.00
2016,06,03,00,09,12.90
2016,06,03,00,11,12.90
2016,06,03,00,12,12.90
2016,06,03,00,13,12.90
2016,06,03,00,14,12.90
2016,06,03,00,16,12.90
2016,06,03,00,17,12.90
2016,06,03,00,18,12.90
2016,06,03,00,19,12.90
2016,06,03,00,21,12.90
2016,06,03,00,22,12.90
2016,06,03,00,23,12.90
2016,06,03,00,24,12.90
2016,06,03,00,26,13.00
2016,06,03,00,27,13.00
2016,06,03,00,28,13.00
2016,06,03,00,29,13.00
2016,06,03,00,31,13.00
2016,06,03,00,32,13.00
2016,06,03,00,33,13.10
2016,06,03,00,34,13.10
2016,06,03,00,36,13.10
2016,06,03,00,37,13.10
2016,06,03,00,38,13.10
2016,06,03,00,39,13.10
2016,06,03,00,41,13.20
2016,06,03,00,42,13.20
2016,06,03,00,43,13.20
2016,06,03,00,44,13.20
2016,06,03,00,46,13.20
2016,06,03,00,47,13.30
2016,06,03,00,48,13.30
2016,06,03,00,49,13.30
2016,06,03,00,51,13.30
2016,06,03,00,52,13.30
2016,06,03,00,53,13.30
2016,06,03,00,54,13.30
2016,06,03,00,55,13.30
2016,06,03,00,56,13.30
2016,06,03,00,57,13.30
2016,06,03,00,58,13.30
2016,06,03,00,59,13.30
2016,06,03,01,01,13.30
2016,06,03,01,02,13.30
2016,06,03,01,03,13.30
2016,06,03,01,04,13.30
2016,06,03,01,06,13.30
2016,06,03,01,07,13.30
2016,06,03,01,08,13.30
2016,06,03,01,09,13.30
2016,06,03,01,10,13.30
2016,06,03,01,11,13.30
2016,06,03,01,12,13.30
2016,06,03,01,13,13.30
2016,06,03,01,14,13.30
2016,06,03,01,15,13.30
2016,06,03,01,16,13.30
2016,06,03,01,17,13.30
2016,06,03,01,18,13.30
2016,06,03,01,19,13.30
2016,06,03,01,20,13.30
2016,06,03,01,21,13.30
2016,06,03,01,22,13.30
2016,06,03,01,23,13.30
2016,06,03,01,24,13.30
2016,06,03,01,25,13.30
2016,06,03,01,26,13.30
2016,06,03,01,27,13.40
2016,06,03,01,28,13.40
2016,06,03,01,29,13.40
2016,06,03,01,30,13.40
2016,06,03,01,31,13.40
2016,06,03,01,32,13.40
2016,06,03,01,33,13.40
2016,06,03,01,34,13.40
2016,06,03,01,35,13.40
2016,06,03,01,36,13.40
2016,06,03,01,37,13.40
2016,06,03,01,38,13.50
2016,06,03,01,39,13.50
2016,06,03,01,40,13.50
2016,06,03,01,41,13.50
2016,06,03,01,42,13.50
2016,06,03,01,43,13.50
2016,06,03,01,44,13.50
2016,06,03,01,45,13.50
2016,06,03,01,46,13.50
2016,06,03,01,47,13.50
2016,06,03,01,48,13.50
2016,06,03,01,49,13.60
2016,06,03,01,50,13.60
2016,06,03,01,51,13.60
2016,06,03,01,52,13.60
2016,06,03,01,53,13.60
2016,06,03,01,54,13.60
2016,06,03,01,55,13.60
2016,06,03,01,56,13.60
2016,06,03,01,57,13.60
2016,06,03,01,58,13.60
2016,06,03,01,59,13.60
2016,06,03,02,00,13.60
2016,06,03,02,01,13.60
2016,06,03,02,02,13.70
2016,06,03,02,03,13.70
2016,06,03,02,04,13.70
2016,06,03,02,05,13.60
2016,06,03,02,06,13.60
2016,06,03,02,07,13.60
2016,06,03,02,08,13.60
2016,06,03,02,09,13.50
2016,06,03,02,10,13.50
2016,06,03,02,11,13.50
2016,06,03,02,12,13.40
2016,06,03,02,13,13.40
2016,06,03,02,14,13.40
2016,06,03,02,15,13.40
2016,06,03,02,16,13.40
2016,06,03,02,17,13.40
2016,06,03,02,18,13.40
2016,06,03,02,19,13.40
2016,06,03,02,20,13.40
2016,06,03,02,21,13.40
2016,06,03,02,22,13.40
2016,06,03,02,24,13.40
2016,06,03,02,25,13.40
2016,06,03,02,27,13.40
2016,06,03,02,28,13.40
2016,06,03,02,29,13.40
2016,06,03,02,31,13.40
2016,06,03,02,32,13.40
2016,06,03,02,33,13.40
2016,06,03,02,34,13.40
2016,06,03,02,36,13.30
2016,06,03,02,37,13.30
2016,06,03,02,38,13.30
2016,06,03,02,39,13.30
2016,06,03,02,41,13.30
2016,06,03,02,42,13.30
2016,06,03,02,43,13.30
2016,06,03,02,44,13.30
2016,06,03,02,46,13.30
2016,06,03,02,47,13.30
2016,06,03,02,48,13.30
2016,06,03,02,49,13.30
2016,06,03,02,51,13.30
2016,06,03,02,52,13.30
2016,06,03,02,53,13.30
2016,06,03,02,54,13.30
2016,06,03,02,56,13.30
2016,06,03,02,57,13.20
2016,06,03,02,58,13.20
2016,06,03,02,59,13.20
2016,06,03,03,01,13.10
2016,06,03,03,02,13.10
2016,06,03,03,03,13.00
2016,06,03,03,04,13.00
2016,06,03,03,06,12.90
2016,06,03,03,07,12.90
2016,06,03,03,08,12.90
2016,06,03,03,09,12.90
2016,06,03,03,11,12.90
2016,06,03,03,12,12.90
2016,06,03,03,13,12.90
2016,06,03,03,14,12.90
2016,06,03,03,16,12.90
2016,06,03,03,17,13.00
2016,06,03,03,18,13.00
2016,06,03,03,19,13.00
2016,06,03,03,21,13.00
2016,06,03,03,22,13.00
2016,06,03,03,23,13.00
2016,06,03,03,24,13.00
2016,06,03,03,26,13.10
2016,06,03,03,27,13.10
2016,06,03,03,28,13.10
2016,06,03,03,29,13.10
2016,06,03,03,31,13.10
2016,06,03,03,32,13.10
2016,06,03,03,33,13.10
2016,06,03,03,34,13.10
2016,06,03,03,36,13.00
2016,06,03,03,37,13.00
2016,06,03,03,38,13.00
2016,06,03,03,39,13.00
2016,06,03,03,41,12.90
2016,06,03,03,42,12.90
2016,06,03,03,43,12.90
2016,06,03,03,44,12.90
2016,06,03,03,45,12.90
2016,06,03,03,46,12.90
2016,06,03,03,47,12.90
2016,06,03,03,48,12.80
2016,06,03,03,49,12.80
2016,06,03,03,50,12.80
2016,06,03,03,51,12.80
2016,06,03,03,52,12.80
2016,06,03,03,53,12.80
2016,06,03,03,54,12.80
2016,06,03,03,55,12.80
2016,06,03,03,56,12.80
2016,06,03,03,57,12.80
2016,06,03,03,58,12.80
2016,06,03,03,59,12.80
2016,06,03,04,00,12.80
2016,06,03,04,01,12.80
2016,06,03,04,02,12.80
2016,06,03,04,03,12.80
2016,06,03,04,04,12.80
2016,06,03,04,05,12.80
2016,06,03,04,06,12.80
2016,06,03,04,07,12.80
2016,06,03,04,08,12.80
2016,06,03,04,09,12.80
2016,06,03,04,10,12.80
2016,06,03,04,11,12.80
2016,06,03,04,12,12.80
2016,06,03,04,13,12.80
2016,06,03,04,14,12.80
2016,06,03,04,15,12.80
2016,06,03,04,16,12.80
2016,06,03,04,17,12.80
2016,06,03,04,18,12.80
2016,06,03,04,19,12.80
2016,06,03,04,20,12.80
2016,06,03,04,21,12.80
2016,06,03,04,22,12.80
2016,06,03,04,23,12.80
2016,06,03,04,24,12.80
2016,06,03,04,25,12.80
2016,06,03,04,26,12.80
2016,06,03,04,27,12.80
2016,06,03,04,28,12.80
2016,06,03,04,29,12.80
2016,06,03,04,30,12.80
2016,06,03,04,31,12.80
2016,06,03,04,32,12.80
2016,06,03,04,33,12.80
2016,06,03,04,34,12.80
2016,06,03,04,35,12.80
2016,06,03,04,36,12.80
2016,06,03,04,37,12.80
2016,06,03,04,38,12.80
2016,06,03,04,39,12.80
2016,06,03,04,40,12.80
2016,06,03,04,41,12.80
2016,06,03,04,42,12.80
2016,06,03,04,43,12.80
2016,06,03,04,44,12.80
2016,06,03,04,45,12.80
2016,06,03,04,46,12.70
2016,06,03,04,47,12.70
2016,06,03,04,48,12.70
2016,06,03,04,49,12.70
2016,06,03,04,50,12.70
2016,06,03,04,52,12.70
2016,06,03,04,53,12.60
2016,06,03,04,54,12.60
2016,06,03,04,56,12.60
2016,06,03,04,57,12.60
2016,06,03,04,58,12.60
2016,06,03,04,59,12.50
2016,06,03,05,00,12.50
2016,06,03,05,02,12.50
2016,06,03,05,03,12.50
2016,06,03,05,04,12.40
2016,06,03,05,06,12.40
2016,06,03,05,07,12.40
2016,06,03,05,08,12.40
2016,06,03,05,09,12.40
2016,06,03,05,11,12.30
2016,06,03,05,12,12.30
2016,06,03,05,13,12.30
2016,06,03,05,14,12.30
2016,06,03,05,16,12.30
2016,06,03,05,17,12.30
2016,06,03,05,18,12.30
2016,06,03,05,19,12.30
2016,06,03,05,21,12.30
2016,06,03,05,22,12.30
2016,06,03,05,23,12.30
2016,06,03,05,24,12.30
2016,06,03,05,26,12.30
2016,06,03,05,27,12.30
2016,06,03,05,28,12.30
2016,06,03,05,29,12.30
2016,06,03,05,31,12.30
2016,06,03,05,32,12.20
2016,06,03,05,33,12.20
2016,06,03,05,34,12.20
2016,06,03,05,36,12.20
2016,06,03,05,37,12.20
2016,06,03,05,38,12.20
2016,06,03,05,39,12.20
2016,06,03,05,41,12.20
2016,06,03,05,42,12.20
2016,06,03,05,43,12.10
2016,06,03,05,44,12.10
2016,06,03,05,46,12.10
2016,06,03,05,47,12.10
2016,06,03,05,48,12.10
2016,06,03,05,49,12.10
2016,06,03,05,51,12.10
2016,06,03,05,52,12.10
2016,06,03,05,53,12.10
2016,06,03,05,54,12.10
2016,06,03,05,56,12.20
2016,06,03,05,57,12.20
2016,06,03,05,58,12.20
2016,06,03,05,59,12.20
2016,06,03,06,01,12.10
2016,06,03,06,02,12.10
2016,06,03,06,03,12.10
2016,06,03,06,04,12.10
2016,06,03,06,06,12.20
2016,06,03,06,07,12.20
2016,06,03,06,08,12.20
2016,06,03,06,09,12.20
2016,06,03,06,11,12.20
2016,06,03,06,12,12.20
2016,06,03,06,13,12.20
2016,06,03,06,14,12.20
2016,06,03,06,15,12.20
2016,06,03,06,16,12.20
2016,06,03,06,17,12.20
2016,06,03,06,18,12.20
2016,06,03,06,19,12.20
2016,06,03,06,20,12.20
2016,06,03,06,21,12.20
2016,06,03,06,22,12.20
2016,06,03,06,23,12.20
2016,06,03,06,24,12.20
2016,06,03,06,25,12.20
2016,06,03,06,26,12.20
2016,06,03,06,27,12.20
2016,06,03,06,28,12.20
2016,06,03,06,29,12.20
2016,06,03,06,30,12.20
2016,06,03,06,31,12.20
2016,06,03,06,32,12.20
2016,06,03,06,33,12.10
2016,06,03,06,34,12.10
2016,06,03,06,35,12.10
2016,06,03,06,36,12.10
2016,06,03,06,37,12.10
2016,06,03,06,38,12.10
2016,06,03,06,39,12.20
2016,06,03,06,40,12.20
2016,06,03,06,41,12.20
2016,06,03,06,42,12.20
2016,06,03,06,43,12.20
2016,06,03,06,44,12.20
2016,06,03,06,45,12.20
2016,06,03,06,46,12.20
2016,06,03,06,47,12.20
2016,06,03,06,48,12.20
2016,06,03,06,49,12.20
2016,06,03,06,50,12.20
2016,06,03,06,51,12.20
2016,06,03,06,52,12.20
2016,06,03,06,53,12.20
2016,06,03,06,54,12.30
2016,06,03,06,55,12.30
2016,06,03,06,56,12.30
2016,06,03,06,57,12.30
2016,06,03,06,58,12.30
2016,06,03,06,59,12.30
2016,06,03,07,00,12.30
2016,06,03,07,01,12.30
2016,06,03,07,02,12.30
2016,06,03,07,03,12.30
2016,06,03,07,04,12.30
2016,06,03,07,05,12.30
2016,06,03,07,06,12.30
2016,06,03,07,07,12.30
2016,06,03,07,08,12.30
2016,06,03,07,09,12.30
2016,06,03,07,10,12.30
2016,06,03,07,11,12.30
2016,06,03,07,12,12.30
2016,06,03,07,13,12.30
2016,06,03,07,14,12.30
2016,06,03,07,15,12.30
2016,06,03,07,16,12.30
2016,06,03,07,17,12.30
2016,06,03,07,18,12.30
2016,06,03,07,19,12.30
2016,06,03,07,20,12.30
2016,06,03,07,21,12.30
2016,06,03,07,22,12.30
2016,06,03,07,23,12.30
2016,06,03,07,24,12.30
2016,06,03,07,25,12.30
2016,06,03,07,26,12.30
2016,06,03,07,27,12.30
2016,06,03,07,28,12.30
2016,06,03,07,29,12.30
2016,06,03,07,30,12.30
2016,06,03,07,31,12.30
2016,06,03,07,32,12.30
2016,06,03,07,33,12.30
2016,06,03,07,34,12.30
2016,06,03,07,36,12.30
2016,06,03,07,37,12.30
2016,06,03,07,38,12.30
2016,06,03,07,39,12.30
2016,06,03,07,41,12.30
2016,06,03,07,42,12.30
2016,06,03,07,43,12.30
2016,06,03,07,44,12.30
2016,06,03,07,46,12.30
2016,06,03,07,47,12.30
2016,06,03,07,48,12.30
2016,06,03,07,49,12.30
2016,06,03,07,51,12.30
2016,06,03,07,52,12.30
2016,06,03,07,53,12.30
2016,06,03,07,54,12.30
2016,06,03,07,56,12.30
2016,06,03,07,57,12.30
2016,06,03,07,58,12.30
2016,06,03,07,59,12.30
2016,06,03,08,01,12.30
2016,06,03,08,02,12.30
2016,06,03,08,03,12.30
2016,06,03,08,04,12.30
2016,06,03,08,06,12.30
2016,06,03,08,07,12.30
2016,06,03,08,08,12.30
2016,06,03,08,09,12.30
2016,06,03,08,11,12.40
2016,06,03,08,12,12.40
2016,06,03,08,13,12.40
2016,06,03,08,14,12.40
2016,06,03,08,16,12.50
2016,06,03,08,17,12.50
2016,06,03,08,18,12.50
2016,06,03,08,19,12.50
2016,06,03,08,21,12.50
2016,06,03,08,22,12.60
2016,06,03,08,23,12.60
2016,06,03,08,24,12.60
2016,06,03,08,26,12.70
2016,06,03,08,27,12.70
2016,06,03,08,28,12.80
2016,06,03,08,29,12.80
2016,06,03,08,31,12.80
2016,06,03,08,32,12.80
2016,06,03,08,33,12.80
2016,06,03,08,34,12.90
2016,06,03,08,36,12.90
2016,06,03,08,37,12.90
2016,06,03,08,38,13.00
2016,06,03,08,39,13.00
2016,06,03,08,41,13.00
2016,06,03,08,42,13.00
2016,06,03,08,43,13.10
2016,06,03,08,44,13.10
2016,06,03,08,46,13.10
2016,06,03,08,47,13.00
2016,06,03,08,48,13.00
2016,06,03,08,49,13.00
2016,06,03,08,51,13.10
2016,06,03,08,52,13.10
2016,06,03,08,53,13.10
2016,06,03,08,54,13.10
2016,06,03,08,55,13.10
2016,06,03,08,56,13.20
2016,06,03,08,57,13.20
2016,06,03,08,58,13.20
2016,06,03,08,59,13.30
2016,06,03,09,00,13.30
2016,06,03,09,01,13.30
2016,06,03,09,02,13.30
2016,06,03,09,03,13.30
2016,06,03,09,04,13.30
2016,06,03,09,06,13.30
2016,06,03,09,07,13.40
2016,06,03,09,08,13.40
2016,06,03,09,09,13.40
2016,06,03,09,10,13.40
2016,06,03,09,11,13.30
2016,06,03,09,12,13.30
2016,06,03,09,13,13.30
2016,06,03,09,14,13.30
2016,06,03,09,15,13.30
2016,06,03,09,16,13.30
2016,06,03,09,17,13.30
2016,06,03,09,18,13.30
2016,06,03,09,19,13.30
2016,06,03,09,20,13.30
2016,06,03,09,21,13.30
2016,06,03,09,22,13.30
2016,06,03,09,23,13.30
2016,06,03,09,24,13.30
2016,06,03,09,25,13.30
2016,06,03,09,26,13.30
2016,06,03,09,27,13.40
2016,06,03,09,28,13.40
2016,06,03,09,29,13.40
2016,06,03,09,30,13.40
2016,06,03,09,31,13.40
2016,06,03,09,32,13.40
2016,06,03,09,33,13.40
2016,06,03,09,34,13.50
2016,06,03,09,35,13.50
2016,06,03,09,36,13.50
2016,06,03,09,37,13.50
2016,06,03,09,38,13.50
2016,06,03,09,39,13.50
2016,06,03,09,40,13.50
2016,06,03,09,41,13.50
2016,06,03,09,42,13.50
2016,06,03,09,43,13.60
2016,06,03,09,44,13.60
2016,06,03,09,45,13.60
2016,06,03,09,46,13.60
2016,06,03,09,47,13.70
2016,06,03,09,48,13.70
2016,06,03,09,49,13.70
2016,06,03,09,50,13.70
2016,06,03,09,51,13.70
2016,06,03,09,52,13.70
2016,06,03,09,53,13.70
2016,06,03,09,54,13.70
2016,06,03,09,55,13.70
2016,06,03,09,56,13.70
2016,06,03,09,57,13.70
2016,06,03,09,58,13.70
2016,06,03,09,59,13.80
2016,06,03,10,00,13.80
2016,06,03,10,01,13.80
2016,06,03,10,02,13.80
2016,06,03,10,03,13.90
2016,06,03,10,04,13.90
2016,06,03,10,05,13.90
2016,06,03,10,06,14.00
2016,06,03,10,07,14.00
2016,06,03,10,08,14.00
2016,06,03,10,09,14.00
2016,06,03,10,10,14.00
2016,06,03,10,11,14.10
2016,06,03,10,12,14.10
2016,06,03,10,13,14.10
2016,06,03,10,14,14.20
2016,06,03,10,15,14.20
2016,06,03,10,16,14.20
2016,06,03,10,17,14.20
2016,06,03,10,18,14.20
2016,06,03,10,19,14.20
2016,06,03,10,20,14.20
2016,06,03,10,21,14.20
2016,06,03,10,22,14.20
2016,06,03,10,23,14.30
2016,06,03,10,24,14.30
2016,06,03,10,25,14.40
2016,06,03,10,26,14.40
2016,06,03,10,28,14.50
2016,06,03,10,29,14.50
2016,06,03,10,31,14.50
2016,06,03,10,32,14.60
2016,06,03,10,33,14.60
2016,06,03,10,34,14.60
2016,06,03,10,36,14.60
2016,06,03,10,37,14.60
2016,06,03,10,38,14.70
2016,06,03,10,39,14.70
2016,06,03,10,41,14.80
2016,06,03,10,42,14.90
2016,06,03,10,43,14.90
2016,06,03,10,44,15.00
2016,06,03,10,46,15.20
2016,06,03,10,47,15.20
2016,06,03,10,48,15.30
2016,06,03,10,49,15.30
2016,06,03,10,51,15.40
2016,06,03,10,52,15.50
2016,06,03,10,53,15.60
2016,06,03,10,54,15.60
2016,06,03,10,56,15.80
2016,06,03,10,57,15.80
2016,06,03,10,58,15.80
2016,06,03,10,59,15.90
2016,06,03,11,01,16.10
2016,06,03,11,02,16.20
2016,06,03,11,03,16.30
2016,06,03,11,04,16.40
2016,06,03,11,06,16.60
2016,06,03,11,07,16.70
2016,06,03,11,08,16.70
2016,06,03,11,09,16.90
2016,06,03,11,11,17.00
2016,06,03,11,12,17.10
2016,06,03,11,13,17.20
2016,06,03,11,14,17.30
2016,06,03,11,16,17.60
2016,06,03,11,17,17.80
2016,06,03,11,18,17.90
2016,06,03,11,19,18.10
2016,06,03,11,21,18.30
2016,06,03,11,22,18.50
2016,06,03,11,23,18.60
2016,06,03,11,24,18.80
2016,06,03,11,26,18.90
2016,06,03,11,27,19.10
2016,06,03,11,28,19.20
2016,06,03,11,29,19.30
2016,06,03,11,31,19.50
2016,06,03,11,32,19.50
2016,06,03,11,33,19.60
2016,06,03,11,34,19.60
2016,06,03,11,36,19.80
2016,06,03,11,37,19.80
2016,06,03,11,38,19.80
2016,06,03,11,39,19.80
2016,06,03,11,41,19.80
2016,06,03,11,42,19.70
2016,06,03,11,43,19.60
2016,06,03,11,44,19.60
2016,06,03,11,45,19.50
2016,06,03,11,46,19.40
2016,06,03,11,47,19.30
2016,06,03,11,48,19.10
2016,06,03,11,49,19.10
2016,06,03,11,51,18.80
2016,06,03,11,52,18.60
2016,06,03,11,53,18.40
2016,06,03,11,54,18.20
2016,06,03,11,55,18.10
2016,06,03,11,56,17.90
2016,06,03,11,57,17.80
2016,06,03,11,58,17.70
2016,06,03,11,59,17.60
2016,06,03,12,00,17.50
2016,06,03,12,01,17.50
2016,06,03,12,02,17.40
2016,06,03,12,03,17.50
2016,06,03,12,04,17.60
2016,06,03,12,06,17.70
2016,06,03,12,07,17.80
2016,06,03,12,08,17.90
2016,06,03,12,09,17.90
2016,06,03,12,10,17.90
2016,06,03,12,11,18.10
2016,06,03,12,12,18.20
2016,06,03,12,13,18.20
2016,06,03,12,14,18.20
2016,06,03,12,15,18.30
2016,06,03,12,16,18.40
2016,06,03,12,17,18.50
2016,06,03,12,18,18.60
2016,06,03,12,19,18.70
2016,06,03,12,20,18.80
2016,06,03,12,21,18.70
2016,06,03,12,22,18.70
2016,06,03,12,23,18.70
2016,06,03,12,24,18.70
2016,06,03,12,25,18.70
2016,06,03,12,26,18.80
2016,06,03,12,27,18.80
2016,06,03,12,28,18.80
2016,06,03,12,29,18.80
2016,06,03,12,30,18.70
2016,06,03,12,31,18.70
2016,06,03,12,32,18.70
2016,06,03,12,33,18.70
2016,06,03,12,34,18.70
2016,06,03,12,35,18.60
2016,06,03,12,36,18.50
2016,06,03,12,37,18.50
2016,06,03,12,38,18.40
2016,06,03,12,39,18.30
2016,06,03,12,40,18.30
2016,06,03,12,41,18.20
2016,06,03,12,42,18.20
2016,06,03,12,43,18.20
2016,06,03,12,44,18.20
2016,06,03,12,45,18.20
2016,06,03,12,46,18.10
2016,06,03,12,47,18.10
2016,06,03,12,48,17.90
2016,06,03,12,49,17.90
2016,06,03,12,50,17.80
2016,06,03,12,51,17.80
2016,06,03,12,52,17.70
2016,06,03,12,53,17.70
2016,06,03,12,54,17.60
2016,06,03,12,55,17.50
2016,06,03,12,56,17.40
2016,06,03,12,57,17.30
2016,06,03,12,58,17.30
2016,06,03,12,59,17.30
2016,06,03,13,00,17.30
2016,06,03,13,01,17.30
2016,06,03,13,02,17.30
2016,06,03,13,03,17.40
2016,06,03,13,04,17.50
2016,06,03,13,05,17.60
2016,06,03,13,06,17.70
2016,06,03,13,07,17.80
2016,06,03,13,08,17.90
2016,06,03,13,09,17.90
2016,06,03,13,10,17.90
2016,06,03,13,11,17.80
2016,06,03,13,12,17.70
2016,06,03,13,13,17.70
2016,06,03,13,14,17.70
2016,06,03,13,15,17.70
2016,06,03,13,16,17.60
2016,06,03,13,17,17.60
2016,06,03,13,18,17.60
2016,06,03,13,19,17.50
2016,06,03,13,20,17.50
2016,06,03,13,22,17.60
2016,06,03,13,23,17.50
2016,06,03,13,24,17.50
2016,06,03,13,26,17.50
2016,06,03,13,27,17.50
2016,06,03,13,28,17.40
2016,06,03,13,29,17.40
2016,06,03,13,31,17.40
2016,06,03,13,32,17.30
2016,06,03,13,33,17.30
2016,06,03,13,34,17.30
2016,06,03,13,36,17.30
2016,06,03,13,37,17.30
2016,06,03,13,38,17.20
2016,06,03,13,39,17.10
2016,06,03,13,41,17.10
2016,06,03,13,42,17.10
2016,06,03,13,43,17.20
2016,06,03,13,44,17.30
2016,06,03,13,46,17.40
2016,06,03,13,47,17.60
2016,06,03,13,48,17.70
2016,06,03,13,49,17.80
2016,06,03,13,51,17.90
2016,06,03,13,52,17.90
2016,06,03,13,53,17.90
2016,06,03,13,54,17.90
2016,06,03,13,56,17.90
2016,06,03,13,57,17.90
2016,06,03,13,58,17.90
2016,06,03,13,59,17.90
2016,06,03,14,01,18.10
2016,06,03,14,02,18.10
2016,06,03,14,03,18.10
2016,06,03,14,04,17.90
2016,06,03,14,06,17.90
2016,06,03,14,07,17.90
2016,06,03,14,08,17.80
2016,06,03,14,09,17.70
2016,06,03,14,11,17.60
2016,06,03,14,12,17.50
2016,06,03,14,13,17.50
2016,06,03,14,14,17.40
2016,06,03,14,16,17.30
2016,06,03,14,17,17.30
2016,06,03,14,18,17.30
2016,06,03,14,19,17.30
2016,06,03,14,21,17.30
2016,06,03,14,22,17.30
2016,06,03,14,23,17.30
2016,06,03,14,24,17.30
2016,06,03,14,26,17.30
2016,06,03,14,27,17.30
2016,06,03,14,28,17.30
2016,06,03,14,29,17.30
2016,06,03,14,31,17.40
2016,06,03,14,32,17.50
2016,06,03,14,33,17.50
2016,06,03,14,34,17.60
2016,06,03,14,36,17.60
2016,06,03,14,37,17.60
2016,06,03,14,38,17.60
2016,06,03,14,39,17.60
2016,06,03,14,41,17.70
2016,06,03,14,42,17.80
2016,06,03,14,43,17.80
2016,06,03,14,44,17.90
2016,06,03,14,45,17.90
2016,06,03,14,46,17.90
2016,06,03,14,47,18.10
2016,06,03,14,48,18.20
2016,06,03,14,49,18.20
2016,06,03,14,50,18.30
2016,06,03,14,51,18.30
2016,06,03,14,52,18.40
2016,06,03,14,53,18.40
2016,06,03,14,54,18.50
2016,06,03,14,55,18.50
2016,06,03,14,56,18.60
2016,06,03,14,57,18.60
2016,06,03,14,58,18.70
2016,06,03,14,59,18.80
2016,06,03,15,00,18.90
2016,06,03,15,01,18.90
2016,06,03,15,02,18.90
2016,06,03,15,03,19.10
2016,06,03,15,04,19.10
2016,06,03,15,05,19.20
2016,06,03,15,06,19.30
2016,06,03,15,07,19.30
2016,06,03,15,08,19.40
2016,06,03,15,09,19.40
2016,06,03,15,10,19.50
2016,06,03,15,11,19.50
2016,06,03,15,12,19.50
2016,06,03,15,13,19.50
2016,06,03,15,14,19.50
2016,06,03,15,15,19.60
2016,06,03,15,16,19.60
2016,06,03,15,17,19.60
2016,06,03,15,18,19.60
2016,06,03,15,19,19.60
2016,06,03,15,20,19.60
2016,06,03,15,21,19.60
2016,06,03,15,22,19.60
2016,06,03,15,23,19.60
2016,06,03,15,24,19.60
2016,06,03,15,25,19.60
2016,06,03,15,26,19.60
2016,06,03,15,27,19.60
2016,06,03,15,28,19.70
2016,06,03,15,29,19.70
2016,06,03,15,30,19.80
2016,06,03,15,31,19.80
2016,06,03,15,32,19.90
2016,06,03,15,33,19.90
2016,06,03,15,34,19.90
2016,06,03,15,35,19.90
2016,06,03,15,36,20.10
2016,06,03,15,37,20.10
2016,06,03,15,38,20.10
2016,06,03,15,39,20.10
2016,06,03,15,40,20.10
2016,06,03,15,41,19.90
2016,06,03,15,42,19.90
2016,06,03,15,43,19.90
2016,06,03,15,44,19.90
2016,06,03,15,45,19.90
2016,06,03,15,46,19.90
2016,06,03,15,47,19.90
2016,06,03,15,48,19.90
2016,06,03,15,49,19.90
2016,06,03,15,50,19.90
2016,06,03,15,51,19.90
2016,06,03,15,52,19.90
2016,06,03,15,53,19.90
2016,06,03,15,54,20.10
2016,06,03,15,55,20.10
2016,06,03,15,56,20.10
2016,06,03,15,57,20.20
2016,06,03,15,58,20.20
2016,06,03,15,59,20.20
2016,06,03,16,00,20.20
2016,06,03,16,01,20.30
2016,06,03,16,02,20.40
2016,06,03,16,03,20.50
2016,06,03,16,04,20.60
2016,06,03,16,05,20.60
2016,06,03,16,07,20.70
2016,06,03,16,08,20.80
2016,06,03,16,09,20.80
2016,06,03,16,11,20.80
2016,06,03,16,12,20.70
2016,06,03,16,13,20.70
2016,06,03,16,14,20.70
2016,06,03,16,16,20.70
2016,06,03,16,17,20.70
2016,06,03,16,18,20.70
2016,06,03,16,19,20.80
2016,06,03,16,21,20.80
2016,06,03,16,22,20.80
2016,06,03,16,23,20.80
2016,06,03,16,24,20.80
2016,06,03,16,26,20.70
2016,06,03,16,27,20.70
2016,06,03,16,28,20.70
2016,06,03,16,29,20.70
2016,06,03,16,31,20.70
2016,06,03,16,32,20.60
2016,06,03,16,33,20.60
2016,06,03,16,34,20.60
2016,06,03,16,36,20.60
2016,06,03,16,37,20.60
2016,06,03,16,38,20.50
2016,06,03,16,39,20.50
2016,06,03,16,41,20.50
2016,06,03,16,42,20.60
2016,06,03,16,43,20.60
2016,06,03,16,44,20.60
2016,06,03,16,46,20.60
2016,06,03,16,47,20.60
2016,06,03,16,48,20.60
2016,06,03,16,49,20.60
2016,06,03,16,51,20.70
2016,06,03,16,52,20.70
2016,06,03,16,53,20.70
2016,06,03,16,54,20.70
2016,06,03,16,56,20.70
2016,06,03,16,57,20.70
2016,06,03,16,58,20.70
2016,06,03,16,59,20.60
2016,06,03,17,01,20.40
2016,06,03,17,02,20.30
2016,06,03,17,03,20.30
2016,06,03,17,04,20.20
2016,06,03,17,06,20.20
2016,06,03,17,07,20.20
2016,06,03,17,08,20.20
2016,06,03,17,09,20.20
2016,06,03,17,11,20.20
2016,06,03,17,12,20.20
2016,06,03,17,13,20.20
2016,06,03,17,14,20.20
2016,06,03,17,16,20.20
2016,06,03,17,17,20.20
2016,06,03,17,18,20.20
2016,06,03,17,19,20.20
2016,06,03,17,21,20.30
2016,06,03,17,22,20.40
2016,06,03,17,23,20.40
2016,06,03,17,24,20.40
2016,06,03,17,25,20.50
2016,06,03,17,26,20.50
2016,06,03,17,27,20.50
2016,06,03,17,28,20.50
2016,06,03,17,29,20.60
2016,06,03,17,31,20.60
2016,06,03,17,32,20.60
2016,06,03,17,33,20.60
2016,06,03,17,34,20.70
2016,06,03,17,36,20.70
2016,06,03,17,37,20.70
2016,06,03,17,38,20.70
2016,06,03,17,39,20.70
2016,06,03,17,40,20.70
2016,06,03,17,41,20.60
2016,06,03,17,42,20.60
2016,06,03,17,43,20.60
2016,06,03,17,44,20.50
2016,06,03,17,45,20.50
2016,06,03,17,46,20.50
2016,06,03,17,47,20.60
2016,06,03,17,48,20.60
2016,06,03,17,49,20.60
2016,06,03,17,50,20.70
2016,06,03,17,51,20.80
2016,06,03,17,52,20.80
2016,06,03,17,53,20.90
2016,06,03,17,54,21.00
2016,06,03,17,55,21.10
2016,06,03,17,56,21.20
2016,06,03,17,57,21.20
2016,06,03,17,58,21.30
2016,06,03,17,59,21.30
2016,06,03,18,00,21.40
2016,06,03,18,01,21.60
2016,06,03,18,02,21.60
2016,06,03,18,03,21.60
2016,06,03,18,04,21.70
2016,06,03,18,05,21.80
2016,06,03,18,06,21.80
2016,06,03,18,07,21.80
2016,06,03,18,08,21.80
2016,06,03,18,09,21.80
2016,06,03,18,10,21.80
2016,06,03,18,11,21.80
2016,06,03,18,12,21.80
2016,06,03,18,13,21.80
2016,06,03,18,14,21.80
2016,06,03,18,15,21.80
2016,06,03,18,16,21.80
2016,06,03,18,17,21.70
2016,06,03,18,18,21.70
2016,06,03,18,19,21.60
2016,06,03,18,20,21.60
2016,06,03,18,21,21.60
2016,06,03,18,22,21.60
2016,06,03,18,23,21.40
2016,06,03,18,24,21.40
2016,06,03,18,25,21.30
2016,06,03,18,26,21.30
2016,06,03,18,27,21.30
2016,06,03,18,28,21.30
2016,06,03,18,29,21.30
2016,06,03,18,30,21.30
2016,06,03,18,31,21.40
2016,06,03,18,32,21.60
2016,06,03,18,33,21.60
2016,06,03,18,34,21.60
2016,06,03,18,35,21.60
2016,06,03,18,36,21.70
2016,06,03,18,37,21.80
2016,06,03,18,38,21.80
2016,06,03,18,39,21.90
2016,06,03,18,40,22.00
2016,06,03,18,41,22.00
2016,06,03,18,42,22.10
2016,06,03,18,43,22.10
2016,06,03,18,44,22.10
2016,06,03,18,45,22.10
2016,06,03,18,46,22.10
2016,06,03,18,47,22.20
2016,06,03,18,48,22.20
2016,06,03,18,49,22.20
2016,06,03,18,50,22.20
2016,06,03,18,51,22.20
2016,06,03,18,52,22.20
2016,06,03,18,53,22.20
2016,06,03,18,54,22.20
2016,06,03,18,55,22.20
2016,06,03,18,56,22.10
2016,06,03,18,58,22.00
2016,06,03,18,59,22.00
2016,06,03,19,00,21.90
2016,06,03,19,02,21.80
2016,06,03,19,03,21.80
2016,06,03,19,04,21.80
2016,06,03,19,06,21.80
2016,06,03,19,07,21.70
2016,06,03,19,08,21.70
2016,06,03,19,09,21.70
2016,06,03,19,11,21.70
2016,06,03,19,12,21.70
2016,06,03,19,13,21.70
2016,06,03,19,14,21.60
2016,06,03,19,16,21.40
2016,06,03,19,17,21.30
2016,06,03,19,18,21.30
2016,06,03,19,19,21.30
2016,06,03,19,21,21.10
2016,06,03,19,22,21.00
2016,06,03,19,23,21.00